• In Austria
  • List of Countries
  • For 7 days
  • Water Temperature
  • Satellite Maps
  • Weather Map
  • News
  • Weather Widgets
  • user-avatar
    Login

    Hourly Weather Beauvais

    Today, 21 October, Sunday

    Time Temperature Precipitation Wind Pressure Humidity
    00:00 +9°C° 0 mm 1 mps 764 mmHg 75%
    01:00 +9°C° 0 mm 1 mps 763 mmHg 75%
    02:00 +9°C° 0 mm 1 mps 763 mmHg 75%
    03:00 +9°C° 0 mm 1 mps 763 mmHg 75%
    04:00 +9°C° 0 mm 1 mps 763 mmHg 75%
    05:00 +8°C° 0 mm 1 mps 763 mmHg 75%
    06:00 +8°C° 0 mm 1 mps 762 mmHg 75%
    07:00 +10°C° 0 mm 1 mps 762 mmHg 69%
    08:00 +11°C° 0 mm 1 mps 762 mmHg 64%
    09:00 +13°C° 0 mm 1 mps 762 mmHg 59%
    10:00 +14°C° 0 mm 1 mps 762 mmHg 54%
    11:00 +16°C° 0 mm 2 mps 762 mmHg 50%
    12:00 +17°C° 0 mm 2 mps 762 mmHg 45%
    13:00 +17°C° 0 mm 2 mps 762 mmHg 47%
    14:00 +18°C° 0 mm 2 mps 761 mmHg 48%
    15:00 +18°C° 0 mm 2 mps 761 mmHg 49%
    16:00 +17°C° 0 mm 2 mps 761 mmHg 56%
    17:00 +15°C° 0 mm 2 mps 761 mmHg 62%
    18:00 +14°C° 0 mm 2 mps 761 mmHg 68%
    19:00 +13°C° 0 mm 2 mps 761 mmHg 71%
    20:00 +13°C° 0 mm 2 mps 761 mmHg 74%
    21:00 +12°C° 0 mm 2 mps 762 mmHg 77%
    22:00 +12°C° 0 mm 2 mps 762 mmHg 80%
    23:00 +12°C° 0 mm 2 mps 762 mmHg 83%

    Tomorrow, 22 October, Monday

    Time Temperature Precipitation Wind Pressure Humidity
    00:00 +12°C° 0 mm 2 mps 762 mmHg 85%
    01:00 +12°C° 0 mm 2 mps 762 mmHg 87%
    02:00 +10°C° 0 mm 2 mps 762 mmHg 88%
    03:00 +10°C° 0 mm 2 mps 762 mmHg 90%
    04:00 +11°C° 0 mm 3 mps 763 mmHg 90%
    05:00 +11°C° 0 mm 4 mps 763 mmHg 91%
    06:00 +12°C° 0 mm 4 mps 763 mmHg 92%
    07:00 +12°C° 0 mm 5 mps 764 mmHg 88%
    08:00 +13°C° 0 mm 6 mps 764 mmHg 85%
    09:00 +12°C° 0 mm 7 mps 765 mmHg 82%
    10:00 +12°C° 0 mm 7 mps 765 mmHg 79%
    11:00 +14°C° 0 mm 7 mps 766 mmHg 76%
    12:00 +14°C° 0 mm 7 mps 766 mmHg 73%
    13:00 +14°C° 0 mm 7 mps 766 mmHg 70%
    14:00 +14°C° 0 mm 6 mps 766 mmHg 67%
    15:00 +14°C° 0 mm 6 mps 766 mmHg 64%
    16:00 +13°C° 0 mm 6 mps 766 mmHg 67%
    17:00 +10°C° 0 mm 5 mps 767 mmHg 70%
    18:00 +9°C° 0 mm 5 mps 767 mmHg 74%
    19:00 +8°C° 0 mm 4 mps 768 mmHg 76%
    20:00 +8°C° 0 mm 4 mps 768 mmHg 78%
    21:00 +7°C° 0 mm 4 mps 768 mmHg 80%
    22:00 +8°C° 0 mm 3 mps 768 mmHg 81%
    23:00 +7°C° 0 mm 3 mps 768 mmHg 82%

    Day after tomorrow, 23 October, Tuesday

    Time Temperature Precipitation Wind Pressure Humidity
    00:00 +7°C° 0 mm 3 mps 768 mmHg 84%
    01:00 +6°C° 0 mm 2 mps 768 mmHg 84%
    02:00 +6°C° 0 mm 2 mps 768 mmHg 85%
    03:00 +6°C° 0 mm 2 mps 768 mmHg 85%
    04:00 +6°C° 0 mm 2 mps 768 mmHg 85%
    05:00 +6°C° 0 mm 2 mps 768 mmHg 86%
    06:00 +7°C° 0 mm 1 mps 767 mmHg 86%
    07:00 +7°C° 0 mm 2 mps 768 mmHg 80%
    08:00 +9°C° 0 mm 2 mps 768 mmHg 74%
    09:00 +11°C° 0 mm 3 mps 768 mmHg 68%
    10:00 +12°C° 0 mm 3 mps 767 mmHg 65%
    11:00 +13°C° 0 mm 4 mps 767 mmHg 61%
    12:00 +14°C° 0 mm 4 mps 766 mmHg 58%
    13:00 +15°C° 0 mm 5 mps 766 mmHg 59%
    14:00 +15°C° 0 mm 5 mps 765 mmHg 61%
    15:00 +15°C° 0 mm 5 mps 765 mmHg 62%
    16:00 +13°C° 0 mm 5 mps 765 mmHg 70%
    17:00 +12°C° 0 mm 4 mps 764 mmHg 77%
    18:00 +11°C° 0 mm 3 mps 764 mmHg 85%
    19:00 +11°C° 0 mm 3 mps 764 mmHg 85%
    20:00 +10°C° 0 mm 3 mps 764 mmHg 86%
    21:00 +10°C° 0 mm 3 mps 765 mmHg 87%
    22:00 +10°C° 0 mm 3 mps 764 mmHg 87%
    23:00 +10°C° 0 mm 3 mps 764 mmHg 88%

    24 October, Wednesday

    Time Temperature Precipitation Wind Pressure Humidity
    00:00 +10°C° 0 mm 3 mps 764 mmHg 88%
    01:00 +10°C° 0 mm 2 mps 764 mmHg 89%
    02:00 +10°C° 0 mm 2 mps 764 mmHg 91%
    03:00 +10°C° 0 mm 2 mps 764 mmHg 92%
    04:00 +10°C° 0 mm 2 mps 764 mmHg 93%
    05:00 +10°C° 0 mm 2 mps 764 mmHg 93%
    06:00 +10°C° 0 mm 2 mps 764 mmHg 94%
    07:00 +12°C° 0 mm 2 mps 764 mmHg 90%
    08:00 +13°C° 0 mm 2 mps 764 mmHg 87%
    09:00 +14°C° 0 mm 2 mps 764 mmHg 84%
    10:00 +14°C° 0 mm 3 mps 764 mmHg 82%
    11:00 +16°C° 0 mm 3 mps 764 mmHg 81%
    12:00 +16°C° 0 mm 3 mps 764 mmHg 80%
    13:00 +16°C° 0 mm 3 mps 764 mmHg 80%
    14:00 +16°C° 0 mm 2 mps 764 mmHg 81%
    15:00 +16°C° 0 mm 2 mps 763 mmHg 82%
    16:00 +15°C° 0 mm 2 mps 763 mmHg 85%
    17:00 +15°C° 0 mm 2 mps 763 mmHg 88%
    18:00 +14°C° 0 mm 1 mps 763 mmHg 91%
    19:00 +14°C° 0 mm 1 mps 763 mmHg 92%
    20:00 +13°C° 0 mm 1 mps 763 mmHg 93%
    21:00 +13°C° 0 mm 1 mps 763 mmHg 94%
    22:00 +12°C° 0 mm 1 mps 763 mmHg 95%
    23:00 +12°C° 0 mm 1 mps 762 mmHg 95%

    25 October, Thursday

    Time Temperature Precipitation Wind Pressure Humidity
    00:00 +12°C° 0 mm 1 mps 762 mmHg 95%
    01:00 +12°C° 0 mm 1 mps 762 mmHg 95%
    02:00 +11°C° 0 mm 1 mps 761 mmHg 95%
    03:00 +11°C° 0 mm 1 mps 761 mmHg 96%
    04:00 +11°C° 0 mm 1 mps 761 mmHg 96%
    05:00 +11°C° 0 mm 1 mps 760 mmHg 96%
    06:00 +11°C° 0 mm 1 mps 760 mmHg 96%
    07:00 +12°C° 0 mm 2 mps 760 mmHg 91%
    08:00 +13°C° 0 mm 2 mps 760 mmHg 87%
    09:00 +14°C° 0 mm 2 mps 760 mmHg 82%
    10:00 +15°C° 0 mm 2 mps 759 mmHg 76%
    11:00 +16°C° 0 mm 2 mps 759 mmHg 70%
    12:00 +17°C° 0 mm 3 mps 759 mmHg 63%
    13:00 +17°C° 0 mm 3 mps 758 mmHg 63%
    14:00 +17°C° 0 mm 3 mps 758 mmHg 63%
    15:00 +17°C° 0 mm 3 mps 757 mmHg 63%
    16:00 +15°C° 0 mm 2 mps 757 mmHg 70%
    17:00 +14°C° 0 mm 2 mps 756 mmHg 78%
    18:00 +12°C° 0 mm 1 mps 756 mmHg 85%
    19:00 +11°C° 0 mm 1 mps 756 mmHg 86%
    20:00 +11°C° 0 mm 1 mps 755 mmHg 88%
    21:00 +10°C° 0 mm 1 mps 755 mmHg 89%
    22:00 +10°C° 0 mm 1 mps 754 mmHg 90%
    23:00 +10°C° 0 mm 1 mps 754 mmHg 90%

    26 October, Friday

    Time Temperature Precipitation Wind Pressure Humidity
    00:00 +8°C° 0 mm 0 mps 753 mmHg 91%
    01:00 +9°C° 0 mm 1 mps 752 mmHg 91%
    02:00 +9°C° 0 mm 1 mps 752 mmHg 92%
    03:00 +9°C° 0 mm 1 mps 751 mmHg 93%
    04:00 +9°C° 0 mm 1 mps 751 mmHg 93%
    05:00 +9°C° 0 mm 1 mps 750 mmHg 94%
    06:00 +9°C° 0 mm 1 mps 750 mmHg 95%
    07:00 +10°C° 0 mm 1 mps 750 mmHg 91%
    08:00 +10°C° 0 mm 2 mps 749 mmHg 88%
    09:00 +12°C° 0 mm 2 mps 749 mmHg 84%
    10:00 +12°C° 0.1 mm 2 mps 749 mmHg 82%
    11:00 +12°C° 0.1 mm 3 mps 748 mmHg 79%
    12:00 +12°C° 0.1 mm 3 mps 748 mmHg 77%
    13:00 +11°C° 0.4 mm 3 mps 747 mmHg 79%
    14:00 +11°C° 0.4 mm 3 mps 747 mmHg 82%
    15:00 +10°C° 0.4 mm 3 mps 747 mmHg 85%
    16:00 +9°C° 0.2 mm 2 mps 747 mmHg 87%
    17:00 +9°C° 0.2 mm 2 mps 747 mmHg 89%
    18:00 +9°C° 0.2 mm 2 mps 747 mmHg 91%
    19:00 +8°C° 0.2 mm 2 mps 746 mmHg 92%
    20:00 +8°C° 0.2 mm 3 mps 746 mmHg 92%
    21:00 +8°C° 0.2 mm 3 mps 746 mmHg 93%
    22:00 +7°C° 0.5 mm 4 mps 746 mmHg 92%
    23:00 +7°C° 0.5 mm 4 mps 746 mmHg 90%
    Show more